This is the latest recevied weather packets stored in our database for station/object KC7RJK-2. If no packets are shown the sender has not sent any weather packets the latest 10 day(s).
| Time | Temp. | Humidity | Pressure | Rain* | Wind** | Luminosity | Snow |
|---|---|---|---|---|---|---|---|
| 1777617009 | 13.33° C | 81% | 1015.6 hPa | 0 mm | - | - | - |
| 1777616411 | 13.89° C | 80% | 1015.6 hPa | 0 mm | - | - | - |
| 1777615810 | 13.89° C | 80% | 1015.6 hPa | 0 mm | - | - | - |
| 1777615213 | 13.89° C | 79% | 1015.6 hPa | 0 mm | - | - | - |
| 1777614609 | 14.44° C | 78% | 1015.5 hPa | 0 mm | - | - | - |
| 1777614009 | 15° C | 77% | 1015.6 hPa | 0 mm | - | - | - |
| 1777613409 | 15° C | 77% | 1015.6 hPa | 0 mm | - | - | - |
| 1777612809 | 15° C | 76% | 1015.7 hPa | 0 mm | - | - | - |
| 1777612209 | 15.56° C | 76% | 1015.7 hPa | 0 mm | - | - | - |
| 1777611609 | 15.56° C | 76% | 1015.6 hPa | 0 mm | - | - | - |
| 1777611008 | 15.56° C | 74% | 1015.5 hPa | 0 mm | - | - | - |
| 1777610409 | 16.11° C | 74% | 1015.4 hPa | 0 mm | - | - | - |
| 1777609809 | 16.11° C | 73% | 1015.3 hPa | 0 mm | - | - | - |
| 1777609208 | 16.67° C | 73% | 1015.1 hPa | 0 mm | - | - | - |
| 1777608010 | 17.22° C | 73% | 1014.8 hPa | 0 mm | - | - | - |
| 1777607410 | 17.78° C | 74% | 1014.7 hPa | 0 mm | - | - | - |
| 1777606812 | 17.78° C | 73% | 1014.6 hPa | 0 mm | - | - | - |
| 1777606213 | 18.89° C | 71% | 1014.4 hPa | 0 mm | - | - | - |
| 1777605609 | 19.44° C | 70% | 1014.3 hPa | 0 mm | - | - | - |
| 1777605009 | 20° C | 67% | 1014.1 hPa | 0 mm | - | - | - |
| 1777604409 | 20.56° C | 66% | 1014 hPa | 0 mm | - | - | - |
| 1777603809 | 21.11° C | 64% | 1014 hPa | 0 mm | - | - | - |
| 1777603208 | 21.67° C | 63% | 1013.9 hPa | 0 mm | - | - | - |
| 1777602583 | 21.67° C | 61% | 1013.8 hPa | 0 mm | - | - | - |
| 1777602010 | 22.22° C | 59% | 1013.7 hPa | 0 mm | - | - | - |
* Rain latest hour (hover to see other rain measurements)
** Current wind speed in m/s (hover to see current wind gust speed)